Regional Weather Roundup
Issued by NWS

Home | Current Version | Previous Version | Graphics & Text | Print | Product List | Glossary On
Versions: 1 2 3 4 5 6 7 8 9 10 11 12 13 14 15 16 17 18 19 20 21 22 23 24 25 26 27 28 29 30 31 32 33 34 35 36 37 38 39 40 41 42 43 44 45 46 47 48 49 50
000
ASUS43 KMKX 020621
RWRWI

WISCONSIN REGIONAL WEATHER ROUNDUP
NATIONAL WEATHER SERVICE MILWAUKEE/SULLIVAN WI
100 AM CDT SAT AUG 02 2014

NOTE: "FAIR" INDICATES FEW OR NO CLOUDS BELOW 12,000 FEET WITH NO
SIGNIFICANT WEATHER AND/OR OBSTRUCTIONS TO VISIBILITY.

WIZ001-002-006>008-014>016-023>028-020700-
NORTHWEST WISCONSIN

CITY           SKY/WX    TMP DP  RH WIND       PRES   REMARKS
SUPERIOR ARPT  CLEAR     55  52  89 NE6       30.10S
6HR MIN TEMP:  52; 6HR MAX TEMP:  64;

ASHLAND        MOCLDY    57  55  93 CALM      30.11S
6HR MIN TEMP:  56; 6HR MAX TEMP:  70;

HAYWARD        CLEAR     59  57  93 CALM      30.11S
6HR MIN TEMP:  58; 6HR MAX TEMP:  76;

SIREN          PTCLDY    60  59  94 CALM      30.10R
6HR MIN TEMP:  60; 6HR MAX TEMP:  77;

RICE LAKE      CLEAR     59  57  94 CALM      30.12S FOG
6HR MIN TEMP:  59; 6HR MAX TEMP:  77;

LADYSMITH      CLEAR     59  56  90 CALM      30.14S
6HR MIN TEMP:  59; 6HR MAX TEMP:  76;

EAU CLAIRE     CLEAR     65  62  90 CALM      30.10R
6HR MIN TEMP:  64; 6HR MAX TEMP:  80;

MENOMONIE      CLEAR     64  61  91 CALM      30.10S
6HR MIN TEMP:  64; 6HR MAX TEMP:  81;

NEW RICHMOND   CLEAR     65  60  86 E3        30.10S
6HR MIN TEMP:  64; 6HR MAX TEMP:  80;

OSCEOLA        CLEAR     65  62  91 CALM      30.12R
6HR MIN TEMP:  63; 6HR MAX TEMP:  81;

$$

WIZ003>005-009-010-017-018-020700-
NORTH CENTRAL WISCONSIN

CITY           SKY/WX    TMP DP  RH WIND       PRES   REMARKS
WOODRUFF       CLEAR     52  43  71 CALM      30.14S HAZE
6HR MIN TEMP:  52; 6HR MAX TEMP:  74;

RHINELANDER    CLEAR     54  52  93 CALM      30.14S
6HR MIN TEMP:  53; 6HR MAX TEMP:  73;

EAGLE RIVER    FOG       49  49 100 CALM      30.14S VSB 1/4
6HR MIN TEMP:  49; 6HR MAX TEMP:  72;

LAND O LAKES   CLEAR     48  48 100 CALM      30.15F FOG
6HR MIN TEMP:  48; 6HR MAX TEMP:  72;

PHILLIPS       MOCLDY    56  54  95 CALM      30.13S
6HR MIN TEMP:  55; 6HR MAX TEMP:  72;

TOMAHAWK       PTCLDY    50  49  96 CALM      30.14S FOG
6HR MIN TEMP:  49; 6HR MAX TEMP:  72;

MEDFORD        CLEAR     55  55  99 CALM      30.13S FOG
6HR MIN TEMP:  54; 6HR MAX TEMP:  74;

MERRILL        PTCLDY    55  55 100 CALM      30.13R
6HR MIN TEMP:  54; 6HR MAX TEMP:  74;

$$

WIZ029-030-035-036-043>047-020700-
CENTRAL WISCONSIN

CITY           SKY/WX    TMP DP  RH WIND       PRES   REMARKS
WAUSAU         CLEAR     59  58  96 CALM      30.10F FOG
6HR MIN TEMP:  59; 6HR MAX TEMP:  71; 6HR PCP: TRACE;

MOSINEE        PTCLDY    54  54 100 CALM      30.13R
MARSHFIELD     FOG       59  57  93 CALM      30.12R VSB 1/2
6HR MIN TEMP:  58; 6HR MAX TEMP:  65; 6HR PCP: TRACE;

STEVENS POINT  CLEAR     53  52  97 CALM      30.12S
6HR MIN TEMP:  53; 6HR MAX TEMP:  65; 6HR PCP:  0.02;

WAUPACA        CLEAR     56  54  91 S5        30.12S
6HR MIN TEMP:  57; 6HR MAX TEMP:  71;

WAUTOMA        CLEAR     54  53  96 CALM      30.13S FOG
6HR MIN TEMP:  54; 6HR MAX TEMP:  65;

WISC RAPIDS    CLEAR     57  56  96 CALM      30.13S
6HR MIN TEMP:  56; 6HR MAX TEMP:  66; 6HR PCP: TRACE;

CAMP DOUGLAS   FOG       54  54 100 E3        30.10F VSB 1/2
                                      6HR PCP:  0.69;

$$

WIZ011>013-019>022-031-037>040-048>050-020700-
NORTHEAST WISCONSIN

CITY           SKY/WX    TMP DP  RH WIND       PRES   REMARKS
ANTIGO         CLEAR     53  53  99 CALM      30.13S FOG
6HR MIN TEMP:  53; 6HR MAX TEMP:  67;

STURGEON BAY   PTCLDY    61  55  82 E3        30.10S
6HR MIN TEMP:  61; 6HR MAX TEMP:  70;

GREEN BAY      CLEAR     61  58  90 SW5       30.10R
6HR MIN TEMP:  61; 6HR MAX TEMP:  74;

MANITOWOC      CLEAR     63  61  93 W3        30.10R
6HR MIN TEMP:  62; 6HR MAX TEMP:  67;

APPLETON       CLEAR     59  55  88 W8        30.11F
CLINTONVILLE   CLEAR     55  54  94 CALM      30.10S
OSHKOSH        CLEAR     61  59  93 W6        30.11S
6HR MIN TEMP:  60; 6HR MAX TEMP:  72;

$$

WIZ032>034-041-042-053>061-020700-
SOUTHWEST WISCONSIN

CITY           SKY/WX    TMP DP  RH WIND       PRES   REMARKS
LA CROSSE      CLEAR     66  58  75 SE5       30.10R
6HR MIN TEMP:  66; 6HR MAX TEMP:  82;

SPARTA         CLEAR     57  55  94 CALM      30.12S
6HR MIN TEMP:  57; 6HR MAX TEMP:  79;

VIROQUA        FAIR      63  53  71 S5        30.13S
6HR MIN TEMP:  61; 6HR MAX TEMP:  77;

BOSCOBEL       CLEAR     58  54  86 CALM      30.12R
6HR MIN TEMP:  58; 6HR MAX TEMP:  83;

PRAIRIE DU CHI CLEAR     64  53  68 CALM      30.10F
6HR MIN TEMP:  64; 6HR MAX TEMP:  81;

PLATTEVILLE    FAIR      63  58  85 S6        30.12S
6HR MIN TEMP:  62; 6HR MAX TEMP:  78;

$$

WIZ056-057-062-063-064-067-068-020700-
SOUTH CENTRAL WISCONSIN

CITY           SKY/WX    TMP DP  RH WIND       PRES   REMARKS
BARABOO/DELLS  CLEAR     58  55  87 S3        30.12F
6HR MIN TEMP:  58; 6HR MAX TEMP:  65; 6HR PCP:  0.06;

LONE ROCK      PTCLDY    63  56  78 CALM      30.12S
6HR MIN TEMP:  62; 6HR MAX TEMP:  76;

WATERTOWN      CLEAR     59  58  97 NW5       30.11S
6HR MIN TEMP:  57; 6HR MAX TEMP:  73; 6HR PCP:  0.04;

MADISON        CLEAR     62  57  83 CALM      30.11F
6HR MIN TEMP:  60; 6HR MAX TEMP:  66; 6HR PCP: TRACE;

MIDDLETON      FAIR      60  57  89 CALM      30.12F
6HR MIN TEMP:  60; 6HR MAX TEMP:  67;

MONROE         CLEAR     63  55  77 SW6       30.10F
JANESVILLE     PTCLDY    59  54  82 CALM      30.09F
$$

WIZ051-052-058>065-066-070>072-020700-
SOUTHEAST WISCONSIN

CITY           SKY/WX    TMP DP  RH WIND       PRES   REMARKS
MILWAUKEE      PTCLDY    60  55  83 SE7       30.09R
6HR MIN TEMP:  60; 6HR MAX TEMP:  67; 6HR PCP:  0.58;

WAUKESHA       CLEAR     55  54  94 W6        30.12R
MILWAUKEE/TIMM CLEAR     59  54  82 NW6       30.10R
RACINE         CLEAR     58  55  90 VRB3      30.11R
6HR MIN TEMP:  58; 6HR MAX TEMP:  72; 6HR PCP:  0.14;

BURLINGTON     CLEAR     56  55  97 CALM      30.10R
6HR MIN TEMP:  55; 6HR MAX TEMP:  64; 6HR PCP:  0.22;

KENOSHA        CLEAR     58  57  97 NW3       30.09R
6HR MIN TEMP:  56; 6HR MAX TEMP:  75; 6HR PCP:  0.39;

FOND DU LAC    CLEAR     57  54  89 S6        30.11S
6HR MIN TEMP:  56; 6HR MAX TEMP:  72;

SHEBOYGAN      CLEAR     61  56  83 NW7       30.10S
6HR MIN TEMP:  58; 6HR MAX TEMP:  70;

WEST BEND      CLEAR     59  52  77 NW3       30.10F
JUNEAU         CLEAR     58  54  84 W3        30.13S
6HR MIN TEMP:  57; 6HR MAX TEMP:  70;

$$

LSZ147-162-020700-
LAKE SUPERIOR

STATION/POSITION TIME  TEMP    WIND        PRES    WAVE
                       AIR SEA DIR/SP/G            HT/PER
                 (UTC) (F)     (DEG/KT/KT) (MB)    (FT/S)
W MID LAKE BUOY  0550   49 46   40/  4/  4 1019.8R   0
PORT WING        0500   58      CALM  /  3 1019.3
SAXON HARBOR     0500             CALM     1019.3
$$

LMZ867-665-643>646-020700-
LAKE MICHIGAN

STATION/POSITION TIME  TEMP    WIND        PRES    WAVE
                       AIR SEA DIR/SP/G            HT/PER
                 (UTC) (F)     (DEG/KT/KT) (MB)    (FT/S)
N MID LAKE BUOY  0550   61 60   10/  4/  6 1018.8F   0
NORTHPORT PIER   0500   63     110/  3/  3 1019.3R
SISTER BAY       0411   62     100/  6/  9   N/A
ALGOMA LAKESHORE 0506             CALM       N/A
KEWAUNEE LAKESHO 0600   58     290/  1/  2 1018.3R
SHEBOYGAN LAKESH 0600   67     270/ 12/ 13 1018.9F
PORT WASHINGTON  0500   66     280/  4/  5 1019.6R
ATWATER BUOY     0600   64        CALM     1020.0R
MILWAUKEE LAKESH 0600   65     180/  2/  2   N/A
S MID LAKE BUOY  0550   65 63   CALM  /  2 1018.9F   0
KENOSHA   LAKESH 0600   63     310/  5/  6 1018.6R
$$

TC  - TEMPERATURE IN CELSIUS
VSB - VISIBILITY IN STATUTE MILES
WCI - WIND CHILL INDEX
HX  - HEAT INDEX



USA.gov is the U.S. government's official web portal to all federal, state and local government web resources and services.